User: anonymous   Login
Location: Nairn
(57.5833°N, 3.8667°W)
Time: 12:03:52
(UTC+00:00)
Language:

Cosmos 1975 - Orbit

View from above orbital plane
View from above orbital plane
View from above satellite
View from above satellite

Ground track
Ground track

The orbit data is extracted from the following two-line orbital elements,

1 19573U 88093A   20296.95151076 +.00000224 +00000-0 +13694-4 0  9991
2 19573 082.5210 240.6666 0015796 089.0276 271.2761 15.04952962722689
Epoch (UTC): 22 October 2020 22:50:10
Eccentricity: 0.0015796
inclination: 82.5210°
perigee height: 541 km
apogee height: 562 km
right ascension of ascending node: 240.6666°
argument of perigee: 89.0276°
revolutions per day: 15.04952962
mean anomaly at epoch: 271.2761°
orbit number at epoch: 72268

The dashed part of the orbit path shows where the satellite is in the earth's shadow,  

DLR